weather.gov     
National Weather Service

Terminal Aerodrome Forecast
NWS Homepage
This page is being discontinued on March 12, 2014.
The same data is available at this site. Please update your bookmarks.
Thank you, and we apologize for the inconvenience.
Please send an email to SR-SRH.Webmaster@noaa.gov with any concerns.


Current Version
Previous Version:    01  02  03  04  05  06  07  08  09  10  11  12  13  14  15  16  17  18  19  20  21  22  23  
[Printable]
845
FTUS42 TJSJ 201700
TAFJPS
TAF
TJPS 201739Z 2018/2118 15010KT P6SM VCTS SCT025CB BKN050
      TEMPO 2018/2020 VRB10G20KT 4SM TSRA BKN025CB
     FM202330 VRB03KT P6SM FEW030 SCT060
     FM211500 15010KT P6SM VCTS SCT025CB SCT050
      AMD NOT SKED TIL 210300=


U.S. Dept. of Commerce
NOAA National Weather Service
1325 East West Highway
Silver Spring, MD 20910
E-mail: w-nws.webmaster@noaa.gov
Page last modified: May 16, 2007
NATIONAL WEATHER SERVICE: for Safety, for Work, for Fun - FOR LIFE